Regional Weather Roundup
Issued by NWS State College, PA

Home | Current Version | Previous Version | Text Only | Print | Product List | Glossary Off
Versions: 1 2 3 4 5 6 7 8 9 10 11 12 13 14 15 16 17 18 19 20 21 22 23 24 25 26 27 28 29 30 31 32 33 34 35 36 37 38 39 40 41 42 43 44 45 46 47 48 49 50

625
ASUS41 KCTP 061603
RWRCTP

REGIONAL WEATHER ROUNDUP
NATIONAL WEATHER SERVICE STATE COLLEGE PA
1100 AM EST SAT FEB 06 2016

Note: "fair" indicates few or no clouds below 12,000 feet with no
significant weather and/or obstructions to visibility.

* = STATION THAT DOES NOT REPORT PRECIPITATION /E.G. RAIN...SNOW...ETC/
    THUNDER OR FOG.

PAZ002>004-007>009-013>016-020>023-029>032-061700-
WESTERN PENNSYLVANIA

CITY           SKY/WX    TMP DP  RH WIND       PRES   REMARKS
ERIE           PTSUNNY   32  23  69 W12       30.28F
MEADVILLE      PTSUNNY   31  21  66 W9        30.26S
FRANKLIN*      SUNNY     34  19  55 SW10      30.27F
NEW CASTLE     FAIR      36  20  52 VRB7      30.29F
BEAVER COUNTY  SUNNY     36  19  51 W9        30.29S
BUTLER*        SUNNY     36  18  48 SW8       30.32F
PITTSBURGH INT MOSUNNY   36  16  44 SW10      30.29F
PITTSBURGH     SUNNY     39  17  41 SW8       30.29F
INDIANA*       CLOUDY    36  19  51 W14       30.31F
LATROBE        PTSUNNY   36  18  48 SW12      30.32S
WASHINGTON CO* SUNNY     37  18  44 SW9G17    30.31S
$$

PAZ004>006-010>012-017>019-024>028-033>037-041-042-045-046-049>053-061700-
CENTRAL PENNSYLVANIA

CITY           SKY/WX    TMP DP  RH WIND       PRES   REMARKS
BRADFORD       CLOUDY    30  17  58 SW9       30.20F
DUBOIS         PTSUNNY   33  17  51 SW13G21   30.24F
CLEARFIELD     SUNNY     32  20  61 SW9       30.27F
JOHNSTOWN      PTSUNNY   32  15  49 SW8       30.25S
ALTOONA        MOSUNNY   35  19  52 S16       30.31F
STATE COLLEGE  MOSUNNY   32  19  59 SW12      30.30F
WILLIAMSPORT   CLOUDY    32  21  64 SE5       30.34F
SELINSGROVE    CLOUDY    36  22  56 SW9       30.38F
FT INDIANTOWN  MOSUNNY   35  20  54 VRB6      30.40F
CAPITAL CITY   MOSUNNY   37  18  46 SW9       30.40F
HARRISBURG     PTSUNNY   37  20  50 S9        30.40F
YORK           CLOUDY    38  19  46 S8        30.40F
$$

PAZ038>040-043-044-047-048-054-055-060>062-067>071-061700-
EASTERN PENNSYLVANIA

CITY           SKY/WX    TMP DP  RH WIND       PRES   REMARKS
SCRANTON       CLOUDY    33  20  58 W6        30.32F
MOUNT POCONO   MOSUNNY   33  15  47 W9        30.28F
ALLENTOWN      MOSUNNY   36  19  50 SW10      30.40F
QUAKERTOWN*    CLOUDY    36  19  51 SW6       30.41F
READING        SUNNY     36  19  50 SW3       30.40F
LANCASTER      SUNNY     34  24  67 CALM      30.41F
COATESVILLE    CLOUDY    36  19  51 SW8       30.42F
POTTSTOWN      MOSUNNY   35  20  54 S3        30.43F
BLUE BELL        N/A     36  21  55 SW3       30.42F
DOYLESTOWN     MOSUNNY   35  17  47 S6        30.40F
WILLOW GROVE   NOT AVBL
NORTH PHILA    MOSUNNY   40  18  41 SW6       30.45F
PHILADELPHIA   PTSUNNY   38  18  44 W7        30.45F
$$




USA.gov is the U.S. government's official web portal to all federal, state and local government web resources and services.